Tracking 30746 objects as of 20-Jun-2025
HD Live streaming from Space Station
objects crossing your sky now

ONEWEB-0628

Track ONEWEB-0628 now!
10-day predictions
ONEWEB-0628 is classified as:


NORAD ID: 55169
Int'l Code: 2023-004AF
Perigee: 1,219.7 km
Apogee: 1,222.0 km
Inclination: 87.9 °
Period: 109.7 minutes
Semi major axis: 7591 km
RCS: Unknown
Launch date: January 10, 2023
Source: United Kingdom (UK)
Launch site: AIR FORCE WESTERN TEST RANGE (AFWTR)
Your satellite tracking list
Your tracking list is empty




NASA's NSSDC Master Catalog

Two Line Element Set (TLE):
1 55169U 23004AF  25170.43889134  .00000007  00000-0 -17156-4 0  9992
2 55169  87.8884  62.7906 0001525  57.4181 302.7095 13.12443571120459
Source of the keplerian elements: AFSPC